AU709 Weather Reports


time (UTC)temp
C
wind
direction
speed
KPH
gust
KPH
rain 1hr
cm
rain 24hr
cm
rain mn
cm
humidity
%
barometer
mb
20260507160053 17 165 4.8 9.7 0.00 0.00 0.00 69 1016.6
20260507154547 16 0 0.0 3.2 0.00 0.00 0.00 72 1016.7
20260507153054 16 0 0.0 1.6 0.00 0.00 0.00 73 1016.6
20260507151549 15 163 0.0 6.4 0.00 0.00 0.00 75 1016.7
20260507150047 15 162 0.0 8.0 0.00 0.00 0.00 80 1016.6
20260507144545 14 0 0.0 1.6 0.00 0.00 0.00 88 1016.4
20260507143045 13 0 0.0 0.0 0.00 0.00 0.00 91 1016.3
20260507141552 13 0 0.0 0.0 0.00 0.00 0.00 92 1016.1
20260507140053 12 0 0.0 1.6 0.00 0.00 0.00 92 1016.1
20260507134553 12 0 0.0 3.2 0.00 0.00 0.00 91 1016.1
20260507133057 12 0 0.0 1.6 0.00 0.00 0.00 90 1015.9
20260507131557 12 0 0.0 1.6 0.00 0.00 0.00 90 1016.0
20260507130107 12 0 0.0 0.0 0.00 0.00 0.00 90 1015.7
20260507124554 12 0 0.0 0.0 0.00 0.00 0.00 90 1015.6
20260507123049 12 0 0.0 0.0 0.00 0.00 0.00 89 1015.5
20260507121558 12 0 0.0 0.0 0.00 0.00 0.00 88 1015.4
20260507120047 11 0 0.0 0.0 0.00 0.00 0.00 87 1015.4
20260507114604 12 0 0.0 0.0 0.00 0.00 0.00 86 1015.5
20260507113053 12 0 0.0 0.0 0.00 0.00 0.00 86 1015.6
20260507111559 12 0 0.0 1.6 0.00 0.00 0.00 86 1015.7
20260507110052 12 163 0.0 1.6 0.00 0.00 0.00 88 1015.9
20260507104553 12 0 0.0 1.6 0.00 0.00 0.00 88 1015.9
20260507103046 12 0 0.0 1.6 0.00 0.00 0.00 88 1016.0
20260507101545 12 0 0.0 0.0 0.00 0.00 0.00 88 1016.1
20260507100053 12 0 0.0 0.0 0.00 0.00 0.00 87 1016.0
20260507094553 12 0 0.0 0.0 0.00 0.00 0.00 85 1016.4
20260507093055 12 0 0.0 1.6 0.00 0.00 0.00 85 1016.5
20260507091552 12 0 0.0 0.0 0.00 0.00 0.00 86 1016.6
20260507090045 12 0 0.0 0.0 0.00 0.00 0.00 86 1016.4
20260507084548 12 0 0.0 1.6 0.00 0.00 0.00 86 1016.8
20260507083052 12 0 0.0 0.0 0.00 0.00 0.00 85 1016.7
20260507081554 12 0 0.0 0.0 0.00 0.00 0.00 85 1016.9
20260507080053 12 0 0.0 0.0 0.00 0.00 0.00 84 1017.2
20260507074605 12 0 0.0 1.6 0.00 0.00 0.00 84 1017.2
20260507073049 12 0 0.0 3.2 0.00 0.00 0.00 85 1017.2
20260507071551 12 0 0.0 1.6 0.00 0.00 0.00 85 1017.3
20260507070054 12 0 0.0 0.0 0.00 0.00 0.00 85 1017.3
20260507064554 13 0 0.0 0.0 0.00 0.00 0.00 84 1017.3
20260507063052 13 0 0.0 0.0 0.00 0.00 0.00 83 1017.3
20260507061552 13 0 0.0 0.0 0.00 0.00 0.00 82 1017.5
20260507060054 13 0 0.0 1.6 0.00 0.00 0.00 82 1017.5
20260507054621 13 0 0.0 0.0 0.00 0.00 0.00 82 1017.5
20260507053055 13 0 0.0 1.6 0.00 0.00 0.00 83 1017.5
20260507051549 13 0 0.0 0.0 0.00 0.00 0.00 83 1017.5
20260507050056 13 0 0.0 0.0 0.00 0.00 0.00 82 1017.5
20260507044559 13 0 0.0 1.6 0.00 0.00 0.00 82 1017.2
20260507043055 13 0 0.0 3.2 0.00 0.00 0.00 81 1017.2
20260507041605 13 0 0.0 1.6 0.00 0.00 0.00 81 1017.2
20260507040055 14 0 0.0 0.0 0.00 0.00 0.00 78 1017.2
20260507034558 14 0 0.0 0.0 0.00 0.00 0.00 78 1017.1
20260507033054 14 0 0.0 1.6 0.00 0.00 0.00 77 1017.0
20260507031602 14 0 0.0 6.4 0.00 0.00 0.00 76 1016.8
20260507030056 15 165 1.6 8.0 0.00 0.00 0.00 74 1016.9
20260507024546 15 166 1.6 9.7 0.00 0.00 0.00 73 1016.8
20260507023102 15 166 4.8 11.3 0.00 0.00 0.00 71 1016.6
20260507021543 15 166 3.2 11.3 0.00 0.00 0.00 68 1016.5
20260507020050 16 166 1.6 9.7 0.00 0.00 0.00 66 1016.4
20260507014602 16 166 3.2 11.3 0.00 0.00 0.00 65 1016.4
20260507013053 17 166 4.8 9.7 0.00 0.00 0.00 64 1016.4
20260507011551 17 166 1.6 9.7 0.00 0.00 0.00 63 1016.4
20260507010043 17 166 8.0 16.1 0.00 0.00 0.00 65 1016.3
20260507004550 17 155 6.4 12.9 0.00 0.00 0.00 64 1016.2
20260507003049 18 145 4.8 16.1 0.00 0.00 0.00 64 1016.2
20260507001602 18 0 3.2 16.1 0.00 0.00 0.00 62 1016.0
20260507000054 18 178 4.8 11.3 0.00 0.00 0.00 62 1015.8
20260506234554 18 179 6.4 14.5 0.00 0.00 0.00 63 1015.9
20260506233108 18 180 3.2 17.7 0.00 0.00 0.00 62 1015.9
20260506231550 18 198 4.8 11.3 0.00 0.00 0.00 63 1015.9
20260506230051 18 222 8.0 17.7 0.00 0.00 0.00 63 1015.9
20260506224549 20 232 3.2 19.3 0.00 0.00 0.00 61 1016.0
20260506223055 20 273 3.2 16.1 0.00 0.00 0.00 59 1016.2
20260506221552 20 316 4.8 14.5 0.00 0.00 0.00 59 1016.2
20260506220052 20 236 4.8 17.7 0.00 0.00 0.00 58 1016.3
20260506214551 20 247 4.8 16.1 0.00 0.00 0.00 58 1016.3
20260506213110 20 309 4.8 17.7 0.00 0.00 0.00 57 1016.5
20260506211551 20 209 3.2 14.5 0.00 0.00 0.00 57 1016.6
20260506210055 20 219 3.2 11.3 0.00 0.00 0.00 56 1016.6
20260506204553 20 216 3.2 12.9 0.00 0.00 0.00 57 1016.7
20260506203050 20 274 3.2 14.5 0.00 0.00 0.00 58 1016.7
20260506201551 20 281 6.4 17.7 0.00 0.00 0.00 55 1016.8
20260506200048 21 264 1.6 9.7 0.00 0.00 0.00 51 1016.8
20260506194604 20 269 1.6 11.3 0.00 0.00 0.00 49 1017.2
20260506193050 20 276 3.2 11.3 0.00 0.00 0.00 49 1017.4
20260506191552 20 257 3.2 11.3 0.00 0.00 0.00 49 1017.5
20260506190051 20 256 3.2 11.3 0.00 0.00 0.00 49 1017.6
20260506184549 19 0 0.0 12.9 0.00 0.00 0.00 52 1017.7
20260506183049 18 250 3.2 11.3 0.00 0.00 0.00 51 1017.8
20260506181551 18 242 0.0 12.9 0.00 0.00 0.00 52 1018.1
20260506174553 18 232 1.6 11.3 0.00 0.00 0.00 54 1018.3
20260506173057 17 219 1.6 9.7 0.00 0.00 0.00 62 1018.1
20260506171550 16 0 3.2 9.7 0.00 0.00 0.00 60 1018.3
20260506170103 16 219 0.0 8.0 0.00 0.00 0.00 64 1018.3
20260506164554 16 0 0.0 11.3 0.00 0.00 0.00 66 1018.3
20260506163114 15 0 0.0 8.0 0.00 0.00 0.00 68 1018.2
20260506161551 14 195 4.8 12.9 0.00 0.00 0.00 70 1018.2